Location: Stockholm
(59.3293°N, 18.0686°E)
Time: 10:33:11
(UTC+02:00)

Amateur Radio Satellites - All Passes

Search period start: 25 May 2017 10:03
Search period end: 26 May 2017 10:03
Location: Stockholm, 59.3293°N, 18.0686°E

Satellite Date Start Highest point End Downlink Frequencies (MHz)
Time Altitude Azimuth
AO-7 25 May 10:03:53 10:09:42 22° 359° (N) 10:15:34 .
ZACube-1 25 May 10:07:18 10:11:49 77° 290° (WNW) 10:16:24 437.345
QB50P2 25 May 10:07:42 10:11:17 27° 57° (ENE) 10:14:52 145.880/145.840
DUCHIFAT 1 25 May 10:08:32 10:11:52 23° 54° (NE) 10:15:12 145.980
CUBEBUG 2 25 May 10:11:47 10:15:54 37° 299° (WNW) 10:20:06 437.445
AO-85 25 May 10:11:55 10:15:39 38° 7° (N) 10:19:23 145.980
AAUSAT CUBESAT 2 25 May 10:16:47 10:20:43 40° 297° (WNW) 10:24:36 437.432
BEESAT 2 25 May 10:23:37 10:27:29 41° 348° (NNW) 10:31:22 435.950
UWE-3 25 May 10:26:04 10:30:17 40° 298° (WNW) 10:34:34 435.000/436.395/437.385
BUGSAT 1 25 May 10:35:10 10:37:48 17° 50° (NE) 10:40:27 437.445
PRISM 25 May 10:36:40 10:40:04 24° 268° (W) 10:43:28 437.425
LO-87 25 May 10:40:57 10:42:05 11° 84° (E) 10:43:11 145.935 - 145.965
EO-79 25 May 10:44:56 10:48:58 46° 64° (ENE) 10:53:02 145.935-145.965
YUBILEINY 25 May 10:45:33 10:53:44 39° 54° (NE) 11:01:53 435.215
Gurwin Techsat 1B 25 May 10:45:42 10:48:27 14° 35° (NE) 10:51:11 435.225
SEEDS 25 May 10:47:32 10:50:24 18° 310° (NW) 10:53:16 437.485
BEESAT 3 25 May 10:48:46 10:52:34 37° 4° (N) 10:56:22 437.485
CUTE-I 25 May 10:49:24 10:51:30 12° 329° (NNW) 10:53:36 437.470
DELFI C3 25 May 10:52:28 10:56:27 80° 105° (ESE) 11:00:24 145.870
NO-84 25 May 10:57:44 11:01:23 27° 154° (SSE) 11:04:51 435.350 FM
TIGRISAT 25 May 10:59:43 11:03:11 23° 270° (W) 11:06:44 435.000
O/OREOS (USA 219) 25 May 11:02:07 11:05:45 22° 23° (NNE) 11:09:21 437.305
ESTCUBE 1 25 May 11:04:45 11:07:27 15° 84° (E) 11:10:07 437.505/2401.250
Oscar 11 25 May 11:06:36 11:10:37 36° 299° (WNW) 11:14:37 .
Oscar 19 25 May 11:20:42 11:24:54 25° 49° (NE) 11:29:06 437.125/150
EO-88 25 May 11:23:25 11:27:07 69° 289° (WNW) 11:30:47 145.990 - 145.960
AIST 2D 25 May 11:25:53 11:29:20 48° 260° (W) 11:32:49 435.315
AO-73 25 May 11:31:12 11:34:47 24° 306° (NW) 11:38:23 145.935
NANOSAT C BR1 25 May 11:31:14 11:35:26 84° 253° (WSW) 11:39:41 145.865
UNISAT 6 25 May 11:32:47 11:34:53 13° 278° (W) 11:37:01 437.425
FO-29 25 May 11:33:35 11:37:12 19° 277° (W) 11:40:56 435.910
POLYITAN 1 25 May 11:34:01 11:38:13 74° 254° (WSW) 11:42:29 437.675
RS-15 25 May 11:38:11 11:50:02 57° 237° (WSW) 12:01:24 29.354- 29.394
QB50P2 25 May 11:42:41 11:46:50 60° 257° (WSW) 11:51:03 145.880/145.840
DUCHIFAT 1 25 May 11:43:00 11:47:11 73° 256° (WSW) 11:51:24 145.980
HO-68 25 May 11:43:28 11:49:02 25° 326° (NNW) 11:54:36 435.675
ZACube-1 25 May 11:44:21 11:47:31 19° 310° (NW) 11:50:43 437.345
CUBEBUG 2 25 May 11:50:19 11:51:28 11° 320° (NW) 11:52:36 437.445
AO-85 25 May 11:52:32 11:56:29 72° 30° (NNE) 12:00:32 145.980
AO-7 25 May 11:53:29 12:00:09 28° 26° (NNE) 12:06:52 .
AAUSAT CUBESAT 2 25 May 11:54:06 11:55:12 11° 318° (NW) 11:56:19 437.432
BEESAT 2 25 May 12:02:02 12:05:56 41° 12° (NNE) 12:09:49 435.950
UWE-3 25 May 12:04:07 12:05:44 12° 319° (NW) 12:07:22 435.000/436.395/437.385
VELOX 1 25 May 12:08:28 12:11:21 17° 86° (E) 12:14:12 145.980
BUGSAT 1 25 May 12:08:36 12:12:36 78° 69° (ENE) 12:16:40 437.445
LO-87 25 May 12:12:38 12:16:12 74° 105° (ESE) 12:19:46 145.935 - 145.965
SPROUT 25 May 12:16:14 12:19:22 19° 88° (E) 12:22:28 437.525
ITAMSAT 1 25 May 12:20:23 12:23:09 15° 36° (NE) 12:25:54 435.822/435.867
EO-79 25 May 12:21:07 12:24:54 32° 265° (W) 12:28:43 145.935-145.965
Gurwin Techsat 1B 25 May 12:22:16 12:27:12 40° 58° (ENE) 12:32:09 435.225
BEESAT 3 25 May 12:26:40 12:30:42 63° 27° (NNE) 12:34:42 437.485
DELFI C3 25 May 12:27:54 12:30:50 20° 306° (NW) 12:33:44 145.870
NO-84 25 May 12:34:29 12:38:29 44° 175° (S) 12:42:13 435.350 FM
ESTCUBE 1 25 May 12:40:30 12:45:04 75° 106° (ESE) 12:49:35 437.505/2401.250
O/OREOS (USA 219) 25 May 12:41:33 12:46:05 57° 47° (NE) 12:50:33 437.305
YUBILEINY 25 May 12:42:41 12:51:32 82° 261° (W) 13:00:24 435.215
Oscar 11 25 May 12:44:46 12:45:40 11° 321° (NW) 12:46:34 .
UKube-1 25 May 12:46:52 12:48:22 12° 82° (E) 12:49:51 .
DX 1 25 May 12:49:57 12:52:43 16° 87° (E) 12:55:28 434.975-435.025
EO-88 25 May 12:58:14 13:00:11 14° 310° (NW) 13:02:09 145.990 - 145.960
Oscar 19 25 May 12:58:28 13:03:42 89° 71° (ENE) 13:08:58 437.125/150
NANOSAT C BR1 25 May 13:09:17 13:11:50 16° 274° (W) 13:14:24 145.865
POLYITAN 1 25 May 13:12:33 13:14:48 14° 276° (W) 13:17:03 437.675
DUCHIFAT 1 25 May 13:21:30 13:23:38 14° 276° (W) 13:25:47 145.980
QB50P2 25 May 13:22:13 13:23:34 11° 279° (W) 13:24:55 145.880/145.840
HO-68 25 May 13:30:40 13:34:34 16° 352° (N) 13:38:30 435.675
AO-85 25 May 13:33:07 13:36:39 31° 231° (SW) 13:40:17 145.980
50 SAT 25 May 13:39:30 13:42:52 50° 101° (ESE) 13:46:11 437.505
BEESAT 2 25 May 13:39:59 13:44:04 87° 27° (NNE) 13:48:10 435.950
AO-7 25 May 13:43:31 13:51:33 57° 52° (NE) 13:59:38 .
VELOX 1 25 May 13:44:03 13:48:30 85° 108° (ESE) 13:52:54 145.980
BUGSAT 1 25 May 13:45:41 13:48:30 18° 271° (W) 13:51:20 437.445
LO-87 25 May 13:46:46 13:49:16 18° 305° (NW) 13:51:47 145.935 - 145.965
SPROUT 25 May 13:51:31 13:55:49 80° 287° (WNW) 14:00:05 437.525
RS-15 25 May 13:51:33 13:59:41 22° 265° (W) 14:07:37 29.354- 29.394
ITAMSAT 1 25 May 13:56:38 14:01:29 42° 58° (ENE) 14:06:22 435.822/435.867
Gurwin Techsat 1B 25 May 14:01:54 14:07:06 53° 259° (W) 14:12:20 435.225
BEESAT 3 25 May 14:04:24 14:08:13 39° 229° (SW) 14:11:58 437.485
NO-84 25 May 14:11:54 14:15:41 37° 196° (SSW) 14:19:09 435.350 FM
ESTCUBE 1 25 May 14:17:48 14:21:30 25° 306° (NW) 14:25:12 437.505/2401.250
ITUPSAT 1 25 May 14:18:00 14:19:34 11° 80° (E) 14:21:08 437.325
UKube-1 25 May 14:21:02 14:25:20 59° 103° (ESE) 14:29:35 .
O/OREOS (USA 219) 25 May 14:21:14 14:25:21 34° 249° (WSW) 14:29:24 437.305
DX 1 25 May 14:25:14 14:29:36 84° 108° (ESE) 14:33:57 434.975-435.025
Oscar 19 25 May 14:39:43 14:43:44 22° 272° (W) 14:47:47 437.125/150
YUBILEINY 25 May 14:40:08 14:47:12 28° 285° (WNW) 14:54:18 435.215
MOZHAYETS 4 25 May 14:49:11 14:51:25 13° 81° (E) 14:53:38
BEESAT 25 May 14:51:21 14:54:54 20° 88° (E) 14:58:26 436.000
DOVE 4 25 May 15:11:58 15:13:55 13° 45° (NE) 15:15:51 437.250
50 SAT 25 May 15:12:46 15:15:32 23° 302° (WNW) 15:18:17 437.505
HO-68 25 May 15:15:23 15:19:50 18° 18° (NNE) 15:24:17 435.675
BEESAT 2 25 May 15:18:06 15:21:29 25° 236° (SW) 15:24:50 435.950
VELOX 1 25 May 15:21:07 15:24:30 22° 308° (NW) 15:27:53 145.980
SPROUT 25 May 15:28:11 15:31:10 19° 310° (NW) 15:34:08 437.525
ITAMSAT 1 25 May 15:35:57 15:40:57 49° 260° (W) 15:46:01 435.822/435.867
AO-7 25 May 15:36:17 15:44:26 58° 256° (WSW) 15:52:41 .
CUTE-I 25 May 15:41:38 15:45:19 19° 42° (NE) 15:48:59 437.470
Gurwin Techsat 1B 25 May 15:46:04 15:48:19 13° 281° (W) 15:50:35 435.225
XW-2D 25 May 15:48:01 15:49:40 12° 47° (NE) 15:51:19 145.860 - 145.880
NO-84 25 May 15:49:55 15:52:28 17° 217° (SW) 15:54:53 435.350 FM
ITUPSAT 1 25 May 15:53:48 15:58:33 53° 101° (ESE) 16:03:16 437.325
XW-2B 25 May 15:55:33 15:57:30 14° 48° (NE) 15:59:27 145.730 - 145.750
UKube-1 25 May 15:57:26 16:01:09 28° 304° (NW) 16:04:50 .
DX 1 25 May 16:02:00 16:05:22 22° 308° (NW) 16:08:42 434.975-435.025
XW-2C 25 May 16:08:28 16:10:56 17° 52° (NE) 16:13:25 145.795 - 145.815
XW-2F 25 May 16:08:45 16:11:09 16° 51° (NE) 16:13:34 145.980 - 146.000
NUDT-PHONESAT 25 May 16:13:05 16:15:14 15° 51° (NE) 16:17:25 437.300
KAITUO 1B 25 May 16:18:59 16:21:26 17° 52° (NE) 16:23:55 145.475/437.950
MOZHAYETS 4 25 May 16:24:53 16:29:33 63° 102° (ESE) 16:34:10
BEESAT 25 May 16:28:30 16:33:21 89° 283° (WNW) 16:38:10 436.000
LilacSat-2 25 May 16:43:35 16:46:58 29° 60° (ENE) 16:50:22 437.200
DOVE 4 25 May 16:46:29 16:50:49 49° 66° (ENE) 16:54:57 437.250
HO-68 25 May 16:59:27 17:05:43 34° 43° (NE) 17:12:00 435.675
SEEDS 25 May 17:03:46 17:05:16 12° 42° (NE) 17:06:46 437.485
CUBESAT XI-V 25 May 17:06:38 17:11:03 38° 96° (E) 17:15:23 437.345
XW-2A 25 May 17:09:55 17:10:08 10° 47° (NE) 17:10:23 145.665 - 145.685
CUTE-I 25 May 17:19:17 17:24:30 61° 65° (ENE) 17:29:46 437.470
XW-2D 25 May 17:19:21 17:23:06 54° 68° (ENE) 17:26:54 145.860 - 145.880
ITAMSAT 1 25 May 17:20:16 17:21:45 11° 282° (WNW) 17:23:15 435.822/435.867
XW-2B 25 May 17:27:13 17:31:00 62° 69° (ENE) 17:34:50 145.730 - 145.750
KKS-1 25 May 17:29:35 17:33:53 47° 100° (E) 17:38:10 437.445
ITUPSAT 1 25 May 17:31:53 17:36:17 36° 302° (WNW) 17:40:40 437.325
AO-7 25 May 17:33:46 17:39:12 19° 280° (W) 17:44:41 .
XW-2C 25 May 17:40:45 17:44:35 82° 74° (ENE) 17:48:28 145.795 - 145.815
XW-2F 25 May 17:40:55 17:44:44 79° 72° (ENE) 17:48:36 145.980 - 146.000
CUTE 1.7 + AOD 2 25 May 17:44:26 17:48:00 26° 56° (NE) 17:51:33 437.475
NUDT-PHONESAT 25 May 17:44:49 17:48:33 73° 71° (ENE) 17:52:20 437.300
AO-73 25 May 17:51:02 17:51:53 10° 39° (NE) 17:52:45 145.935
KAITUO 1B 25 May 17:51:08 17:54:55 84° 75° (ENE) 17:58:46 145.475/437.950
MOZHAYETS 4 25 May 18:02:25 18:06:28 30° 304° (WNW) 18:10:30
ZACube-1 25 May 18:02:45 18:04:43 13° 43° (NE) 18:06:42 437.345
STARS 25 May 18:04:51 18:09:06 47° 100° (E) 18:13:21 437.465
AAUSAT CUBESAT 2 25 May 18:06:22 18:09:11 18° 51° (NE) 18:12:00 437.432
CUBEBUG 2 25 May 18:06:45 18:10:06 23° 54° (NE) 18:13:30 437.445
BEESAT 25 May 18:06:52 18:10:37 23° 310° (NW) 18:14:22 436.000
LilacSat-2 25 May 18:17:24 18:21:07 46° 261° (W) 18:24:54 437.200
UWE-3 25 May 18:20:25 18:23:40 21° 52° (NE) 18:26:58 435.000/436.395/437.385
DOVE 4 25 May 18:24:41 18:28:43 32° 265° (W) 18:32:37 437.250
SEEDS 25 May 18:35:58 18:40:00 43° 64° (ENE) 18:44:03 437.485
XW-2A 25 May 18:38:53 18:42:09 50° 68° (ENE) 18:45:29 145.665 - 145.685
CUBESAT XI-V 25 May 18:44:04 18:48:32 45° 297° (WNW) 18:52:58 437.345
HO-68 25 May 18:45:36 18:52:48 87° 68° (ENE) 19:00:05 435.675
XW-2D 25 May 18:54:27 18:57:35 24° 268° (W) 19:00:46 145.860 - 145.880
Oscar 11 25 May 18:58:59 19:02:25 23° 54° (NE) 19:05:51 .
CUTE-I 25 May 19:00:07 19:04:54 34° 266° (W) 19:09:44 437.470
XW-2B 25 May 19:02:35 19:05:33 21° 270° (W) 19:08:33 145.730 - 145.750
KKS-1 25 May 19:06:20 19:10:24 36° 301° (WNW) 19:14:26 437.445
ITUPSAT 1 25 May 19:11:07 19:12:57 12° 324° (NW) 19:14:46 437.325
XW-2C 25 May 19:16:49 19:19:20 16° 273° (W) 19:21:51 145.795 - 145.815
XW-2F 25 May 19:16:51 19:19:24 17° 273° (W) 19:21:57 145.980 - 146.000
CUTE 1.7 + AOD 2 25 May 19:19:14 19:23:31 67° 256° (WSW) 19:27:51 437.475
NUDT-PHONESAT 25 May 19:20:21 19:22:56 18° 272° (W) 19:25:32 437.300
AO-73 25 May 19:23:05 19:27:00 36° 61° (ENE) 19:31:02 145.935
KAITUO 1B 25 May 19:27:07 19:29:30 16° 273° (W) 19:31:53 145.475/437.950
STRAND 1 25 May 19:30:37 19:35:01 27° 91° (E) 19:39:23 437.568
ZACube-1 25 May 19:35:58 19:40:04 47° 65° (ENE) 19:44:17 437.345
AAUSAT CUBESAT 2 25 May 19:39:53 19:44:04 78° 72° (ENE) 19:48:17 437.432
STARS 25 May 19:41:24 19:45:23 35° 301° (WNW) 19:49:22 437.465
CUBEBUG 2 25 May 19:42:09 19:46:20 75° 256° (WSW) 19:50:41 437.445
PCSat 25 May 19:49:10 19:53:51 31° 117° (ESE) 19:58:34 145.827
UWE-3 25 May 19:55:25 19:59:39 84° 251° (WSW) 20:04:03 435.000/436.395/437.385
SEEDS 25 May 20:11:51 20:15:47 35° 264° (W) 20:19:45 437.485
DELFI C3 25 May 20:12:26 20:15:53 29° 60° (ENE) 20:19:22 145.870
XW-2A 25 May 20:12:33 20:15:11 21° 268° (W) 20:17:50 145.665 - 145.685
CUBESAT XI-V 25 May 20:22:39 20:24:55 13° 319° (NW) 20:27:09 437.345
Oscar 11 25 May 20:33:46 20:38:08 80° 253° (WSW) 20:42:33 .
HO-68 25 May 20:35:15 20:41:26 30° 270° (W) 20:47:40 435.675
EO-88 25 May 20:36:34 20:39:53 32° 62° (ENE) 20:43:13 145.990 - 145.960
ESTCUBE 1 25 May 20:39:12 20:41:00 12° 40° (NE) 20:42:48 437.505/2401.250
KKS-1 25 May 20:44:44 20:45:52 11° 323° (NW) 20:46:59 437.445
FO-29 25 May 20:45:58 20:47:11 11° 75° (ENE) 20:48:25 435.910
M-CUBED/EXP-1 PRIME 25 May 20:46:42 20:48:34 14° 95° (E) 20:50:23 437.505
CUTE 1.7 + AOD 2 25 May 20:58:12 21:00:13 13° 278° (W) 21:02:14 437.475
AO-73 25 May 20:59:09 21:03:13 43° 262° (W) 21:07:26 145.935
STRAND 1 25 May 21:09:33 21:14:41 72° 292° (WNW) 21:19:49 437.568
ZACube-1 25 May 21:12:41 21:16:33 32° 266° (W) 21:20:30 437.345
AAUSAT CUBESAT 2 25 May 21:16:59 21:20:03 19° 272° (W) 21:23:07 437.432
STARS 25 May 21:19:47 21:20:38 10° 323° (NW) 21:21:29 437.465
CUBEBUG 2 25 May 21:21:33 21:23:48 14° 277° (W) 21:26:05 437.445
LO-87 25 May 21:25:01 21:27:44 21° 57° (ENE) 21:30:26 145.935 - 145.965
PCSat 25 May 21:31:22 21:36:50 85° 320° (NW) 21:42:20 145.827
UWE-3 25 May 21:34:13 21:36:52 16° 276° (W) 21:39:34 435.000/436.395/437.385
UNISAT 6 25 May 21:35:43 21:38:28 16° 84° (E) 21:41:13 437.425
VELOX 1 25 May 21:40:42 21:42:40 13° 42° (NE) 21:44:39 145.980
SPROUT 25 May 21:45:17 21:47:02 12° 43° (NE) 21:48:48 437.525
DELFI C3 25 May 21:46:37 21:50:31 50° 260° (W) 21:54:26 145.870
PRISM 25 May 22:07:43 22:11:13 26° 94° (E) 22:14:40 437.425
EO-88 25 May 22:10:06 22:13:33 37° 262° (W) 22:17:02 145.990 - 145.960
Oscar 11 25 May 22:12:23 22:15:02 16° 276° (W) 22:17:40 .
ESTCUBE 1 25 May 22:12:31 22:16:46 41° 61° (ENE) 22:21:03 437.505/2401.250
M-CUBED/EXP-1 PRIME 25 May 22:20:08 22:23:37 81° 297° (WNW) 22:26:54 437.505
SO-50 25 May 22:20:10 22:21:55 12° 113° (ESE) 22:23:40 436.795
DX 1 25 May 22:20:43 22:22:34 13° 41° (NE) 22:24:26 434.975-435.025
Tancredo 1 25 May 22:22:36 22:24:11 13° 158° (SSE) 22:25:44 437.200
FO-29 25 May 22:28:08 22:33:53 42° 97° (E) 22:40:18 435.910
TIGRISAT 25 May 22:40:05 22:44:24 41° 98° (E) 22:48:48 435.000
ISS 25 May 22:41:06 22:42:59 14° 158° (SSE) 22:44:53 437.550
50 SAT 25 May 22:49:12 22:51:19 16° 53° (NE) 22:53:26 437.505
STRAND 1 25 May 22:49:24 22:53:10 21° 314° (NW) 22:56:58 437.568
LO-87 25 May 22:57:21 23:00:52 62° 256° (WSW) 23:04:26 145.935 - 145.965
POLYITAN 1 25 May 23:11:19 23:12:30 11° 81° (E) 23:13:42 437.675
UNISAT 6 25 May 23:11:23 23:15:57 75° 105° (ESE) 23:20:35 437.425
VELOX 1 25 May 23:13:59 23:18:12 45° 63° (ENE) 23:22:25 145.980
PCSat 25 May 23:15:39 23:20:50 42° 344° (NNW) 23:26:02 145.827
SPROUT 25 May 23:17:59 23:22:02 46° 64° (ENE) 23:26:08 437.525
QB50P2 25 May 23:19:07 23:21:19 14° 84° (E) 23:23:29 145.880/145.840
DUCHIFAT 1 25 May 23:19:33 23:20:37 11° 81° (E) 23:21:40 145.980
PRISM 25 May 23:42:46 23:46:47 54° 294° (WNW) 23:50:45 437.425
UKube-1 25 May 23:48:55 23:52:46 32° 58° (ENE) 23:56:38 .
ESTCUBE 1 25 May 23:49:18 23:53:37 42° 262° (W) 23:57:58 437.505/2401.250
DX 1 25 May 23:53:41 23:57:49 44° 62° (ENE) 00:01:59 434.975-435.025
M-CUBED/EXP-1 PRIME 25 May 23:55:23 23:57:35 16° 318° (NW) 23:59:43 437.505
EO-79 25 May 23:55:54 23:59:24 24° 91° (E) 00:02:53 145.935-145.965
Tancredo 1 25 May 23:56:51 23:59:11 20° 178° (S) 00:01:31 437.200
SO-50 25 May 23:57:02 00:01:25 47° 133° (SE) 00:05:46 436.795
ITUPSAT 1 25 May 23:58:14 00:00:09 12° 36° (NE) 00:02:04 437.325
YUBILEINY 26 May 00:00:46 00:07:43 28° 74° (ENE) 00:14:42 435.215
RS-15 26 May 00:11:11 00:14:33 12° 83° (E) 00:17:57 29.354- 29.394
FO-29 26 May 00:13:23 00:19:13 59° 296° (WNW) 00:25:49 435.910
AIST 2D 26 May 00:14:43 00:18:16 56° 101° (ESE) 00:21:48 435.315
ISS 26 May 00:16:08 00:18:44 22° 178° (S) 00:21:20 437.550
TIGRISAT 26 May 00:16:53 00:21:08 41° 298° (WNW) 00:25:28 435.000
50 SAT 26 May 00:20:15 00:23:44 90° 355° (N) 00:27:12 437.505
MOZHAYETS 4 26 May 00:26:02 00:27:23 11° 37° (NE) 00:28:44
BEESAT 26 May 00:30:55 00:34:03 18° 44° (NE) 00:37:12 436.000
NANOSAT C BR1 26 May 00:41:40 00:45:49 50° 101° (E) 00:49:57 145.865
POLYITAN 1 26 May 00:45:00 00:49:15 57° 102° (ESE) 00:53:28 437.675
UNISAT 6 26 May 00:48:36 00:52:19 26° 305° (NW) 00:56:06 437.425
VELOX 1 26 May 00:50:42 00:54:48 35° 264° (W) 00:58:53 145.980
DUCHIFAT 1 26 May 00:53:03 00:57:14 57° 102° (ESE) 01:01:25 145.980
QB50P2 26 May 00:53:37 00:57:54 71° 104° (ESE) 01:02:10 145.880/145.840
SPROUT 26 May 00:54:16 00:58:07 33° 265° (W) 01:01:59 437.525
PCSat 26 May 01:00:13 01:05:20 39° 9° (N) 01:10:26 145.827
Oscar 19 26 May 01:01:19 01:04:36 17° 83° (E) 01:07:53 437.125/150
BUGSAT 1 26 May 01:16:08 01:19:57 36° 97° (E) 01:23:49 437.445
PRISM 26 May 01:19:16 01:21:17 13° 315° (NW) 01:23:18 437.425
UKube-1 26 May 01:24:28 01:28:41 50° 258° (WSW) 01:32:55 .
DX 1 26 May 01:30:07 01:34:08 35° 263° (W) 01:38:10 434.975-435.025
EO-79 26 May 01:31:19 01:35:32 63° 292° (WNW) 01:39:45 145.935-145.965
Tancredo 1 26 May 01:32:21 01:34:13 15° 198° (SSW) 01:36:05 437.200
ITUPSAT 1 26 May 01:32:27 01:36:50 37° 58° (ENE) 01:41:16 437.325
SO-50 26 May 01:37:20 01:41:51 63° 336° (NNW) 01:46:23 436.795
AIST 2D 26 May 01:48:24 01:51:15 22° 302° (WNW) 01:54:05 435.315
ISS 26 May 01:52:18 01:54:30 17° 198° (SSW) 01:56:42 437.550
YUBILEINY 26 May 01:54:36 02:03:20 81° 99° (E) 02:12:10 435.215
TIGRISAT 26 May 01:55:03 01:56:50 12° 319° (NW) 01:58:37 435.000
50 SAT 26 May 01:55:28 01:57:09 13° 273° (W) 01:58:51 437.505
MOZHAYETS 4 26 May 01:59:11 02:03:23 35° 59° (ENE) 02:07:38
FO-29 26 May 01:59:13 02:03:27 21° 318° (NW) 02:08:01 435.910
BEESAT 26 May 02:06:21 02:11:04 62° 66° (ENE) 02:15:48 436.000
Gurwin Techsat 1B 26 May 02:08:18 02:13:05 32° 93° (E) 02:17:49 435.225
RS-15 26 May 02:12:14 02:23:02 39° 111° (ESE) 02:33:56 29.354- 29.394
NANOSAT C BR1 26 May 02:17:39 02:21:26 32° 301° (WNW) 02:25:11 145.865
POLYITAN 1 26 May 02:21:09 02:24:50 29° 303° (WNW) 02:28:32 437.675
DUCHIFAT 1 26 May 02:29:04 02:32:43 29° 302° (WNW) 02:36:22 145.980
QB50P2 26 May 02:29:54 02:33:22 24° 305° (NW) 02:36:49 145.880/145.840
Oscar 19 26 May 02:39:41 02:44:54 71° 105° (ESE) 02:50:03 437.125/150
CUBESAT XI-V 26 May 02:42:43 02:46:31 25° 53° (NE) 02:50:20 437.345
PCSat 26 May 02:44:04 02:49:32 67° 34° (NE) 02:54:57 145.827
BUGSAT 1 26 May 02:51:33 02:55:24 40° 297° (WNW) 02:59:16 437.445
KKS-1 26 May 03:00:50 03:04:38 28° 56° (NE) 03:08:26 437.445
EO-79 26 May 03:08:04 03:10:36 16° 313° (NW) 03:13:09 145.935-145.965
ITUPSAT 1 26 May 03:09:56 03:14:36 50° 259° (W) 03:19:18 437.325
SO-50 26 May 03:18:34 03:22:55 43° 359° (N) 03:27:15 436.795
AO-7 26 May 03:26:50 03:34:02 31° 90° (E) 03:41:12 .
STARS 26 May 03:34:51 03:38:34 28° 56° (NE) 03:42:18 437.465
MOZHAYETS 4 26 May 03:35:58 03:40:28 50° 260° (W) 03:45:01
ITAMSAT 1 26 May 03:38:56 03:43:34 31° 93° (E) 03:48:10 435.822/435.867
BEESAT 26 May 03:45:04 03:49:13 29° 267° (W) 03:53:24 436.000
Gurwin Techsat 1B 26 May 03:48:09 03:53:25 64° 295° (WNW) 03:58:40 435.225
YUBILEINY 26 May 03:53:02 04:01:07 39° 306° (NW) 04:09:18 435.215
CUBESAT XI-V 26 May 04:18:45 04:23:29 81° 255° (WSW) 04:28:14 437.345
Oscar 19 26 May 04:19:24 04:23:55 31° 307° (NW) 04:28:24 437.125/150
RS-15 26 May 04:21:55 04:34:15 82° 139° (SE) 04:46:36 29.354- 29.394
PCSat 26 May 04:27:40 04:32:49 43° 237° (WSW) 04:37:55 145.827
BUGSAT 1 26 May 04:28:53 04:29:49 11° 319° (NW) 04:30:44 437.445
KKS-1 26 May 04:36:33 04:40:57 62° 256° (WSW) 04:45:23 437.445
O/OREOS (USA 219) 26 May 04:42:08 04:46:28 43° 115° (ESE) 04:50:50 437.305
ITUPSAT 1 26 May 04:52:26 04:53:37 11° 281° (W) 04:54:47 437.325
SO-50 26 May 04:59:28 05:03:59 61° 23° (NNE) 05:08:27 436.795
STARS 26 May 05:10:21 05:14:40 62° 257° (WSW) 05:19:02 437.465
MOZHAYETS 4 26 May 05:17:58 05:18:47 10° 282° (WNW) 05:19:36
STRAND 1 26 May 05:18:01 05:22:08 25° 50° (NE) 05:26:16 437.568
ITAMSAT 1 26 May 05:18:16 05:23:26 65° 295° (WNW) 05:28:36 435.822/435.867
AO-7 26 May 05:19:33 05:27:59 86° 115° (ESE) 05:36:23 .
CUTE-I 26 May 05:28:21 05:30:19 12° 78° (ENE) 05:32:17 437.470
Gurwin Techsat 1B 26 May 05:28:47 05:32:34 20° 317° (NW) 05:36:19 435.225
AO-85 26 May 05:35:37 05:39:08 29° 127° (SE) 05:42:34 145.980
BEESAT 3 26 May 05:40:31 05:42:55 16° 118° (ESE) 05:45:21 437.485
LilacSat-2 26 May 05:42:24 05:44:11 13° 84° (E) 05:45:57 437.200
YUBILEINY 26 May 05:55:14 06:01:07 19° 337° (NNW) 06:07:02 435.215
CUBESAT XI-V 26 May 05:58:29 06:01:37 17° 275° (W) 06:04:46 437.345
Oscar 19 26 May 06:00:12 06:01:51 11° 330° (NNW) 06:03:30 437.125/150
HO-68 26 May 06:05:40 06:07:25 11° 71° (ENE) 06:09:11 435.675
M-CUBED/EXP-1 PRIME 26 May 06:06:31 06:09:37 22° 48° (NE) 06:12:33 437.505
DOVE 4 26 May 06:13:01 06:16:49 33° 95° (E) 06:20:38 437.250
PCSat 26 May 06:13:34 06:14:54 11° 258° (WSW) 06:16:14 145.827
KKS-1 26 May 06:16:34 06:18:27 12° 277° (W) 06:20:20 437.445
XW-2D 26 May 06:16:58 06:20:08 23° 91° (E) 06:23:16 145.860 - 145.880
O/OREOS (USA 219) 26 May 06:21:27 06:25:55 48° 317° (NW) 06:30:23 437.305
XW-2B 26 May 06:24:49 06:28:07 26° 93° (E) 06:31:24 145.730 - 145.750
RS-15 26 May 06:35:10 06:47:35 70° 350° (N) 06:59:51 29.354- 29.394
XW-2F 26 May 06:37:59 06:41:31 32° 96° (E) 06:45:00 145.980 - 146.000
XW-2C 26 May 06:38:17 06:41:52 34° 96° (E) 06:45:24 145.795 - 145.815
NUDT-PHONESAT 26 May 06:39:59 06:43:20 29° 94° (E) 06:46:40 437.300
SO-50 26 May 06:40:04 06:44:27 50° 226° (SW) 06:48:50 436.795
KAITUO 1B 26 May 06:47:08 06:50:39 33° 96° (E) 06:54:09 145.475/437.950
STARS 26 May 06:50:09 06:51:56 12° 277° (W) 06:53:44 437.465
BEESAT 2 26 May 06:54:27 06:57:48 26° 125° (SE) 07:01:12 435.950
STRAND 1 26 May 06:55:41 07:00:49 90° 340° (NNW) 07:05:59 437.568
CUTE 1.7 + AOD 2 26 May 06:55:51 06:58:01 13° 83° (E) 07:00:08 437.475
ITAMSAT 1 26 May 06:58:26 07:02:07 20° 317° (NW) 07:05:49 435.822/435.867
CUTE-I 26 May 07:06:29 07:11:41 51° 100° (E) 07:16:53 437.470
FO-29 26 May 07:08:49 07:12:03 17° 36° (NE) 07:15:27 435.910
UNISAT 6 26 May 07:10:15 07:11:26 11° 39° (NE) 07:12:36 437.425
AO-7 26 May 07:12:37 07:20:13 41° 319° (NW) 07:27:49 .
AO-85 26 May 07:15:15 07:19:16 76° 330° (NNW) 07:23:12 145.980
LilacSat-2 26 May 07:15:16 07:19:11 74° 103° (ESE) 07:23:05 437.200
BEESAT 3 26 May 07:15:52 07:19:50 63° 138° (SE) 07:23:51 437.485
CUBEBUG 2 26 May 07:24:02 07:26:35 15° 83° (E) 07:29:08 437.445
XW-2A 26 May 07:24:48 07:27:02 16° 89° (E) 07:29:16 145.665 - 145.685
PRISM 26 May 07:32:20 07:34:49 16° 48° (NE) 07:37:19 437.425
UWE-3 26 May 07:36:36 07:38:40 13° 82° (E) 07:40:43 435.000/436.395/437.385
M-CUBED/EXP-1 PRIME 26 May 07:39:42 07:43:48 79° 248° (WSW) 07:47:34 437.505
SEEDS 26 May 07:46:01 07:49:27 23° 90° (E) 07:52:52 437.485
HO-68 26 May 07:50:38 07:57:24 41° 96° (E) 08:04:07 435.675
DOVE 4 26 May 07:50:44 07:54:41 42° 296° (WNW) 07:58:38 437.250
XW-2D 26 May 07:50:48 07:54:37 56° 292° (WNW) 07:58:24 145.860 - 145.880
YUBILEINY 26 May 07:57:21 08:02:31 16° 11° (N) 08:07:42 435.215
XW-2B 26 May 07:58:47 08:02:32 49° 293° (WNW) 08:06:16 145.730 - 145.750
O/OREOS (USA 219) 26 May 08:02:53 08:06:23 21° 341° (NNW) 08:09:52 437.305
XW-2F 26 May 08:12:06 08:15:44 39° 296° (WNW) 08:19:20 145.980 - 146.000
TIGRISAT 26 May 08:12:23 08:15:47 23° 53° (NE) 08:19:16 435.000
XW-2C 26 May 08:12:30 08:16:07 38° 296° (WNW) 08:19:43 145.795 - 145.815
Oscar 11 26 May 08:13:10 08:14:49 12° 81° (E) 08:16:29 .
NUDT-PHONESAT 26 May 08:13:47 08:17:24 43° 295° (WNW) 08:20:59 437.300
KAITUO 1B 26 May 08:21:09 08:24:44 38° 296° (WNW) 08:28:16 145.475/437.950
SO-50 26 May 08:22:00 08:23:59 13° 247° (WSW) 08:25:59 436.795
CUTE 1.7 + AOD 2 26 May 08:30:22 08:34:40 70° 103° (ESE) 08:38:56 437.475
BEESAT 2 26 May 08:31:10 08:35:13 85° 327° (NNW) 08:39:19 435.950
STRAND 1 26 May 08:36:52 08:40:44 21° 273° (W) 08:44:37 437.568
AO-73 26 May 08:37:25 08:41:00 22° 89° (E) 08:44:35 145.935
UNISAT 6 26 May 08:43:04 08:47:03 37° 61° (ENE) 08:51:09 437.425
CUTE-I 26 May 08:46:44 08:51:44 42° 302° (WNW) 08:56:44 437.470
AAUSAT CUBESAT 2 26 May 08:48:01 08:51:59 40° 97° (E) 08:55:54 437.432
RS-15 26 May 08:49:04 09:01:33 76° 21° (NNE) 09:13:40 29.354- 29.394
LilacSat-2 26 May 08:50:08 08:53:06 21° 305° (NW) 08:56:03 437.200
ZACube-1 26 May 08:50:42 08:54:42 30° 93° (E) 08:58:43 437.345
FO-29 26 May 08:50:59 08:56:00 49° 60° (ENE) 09:01:21 435.910
BEESAT 3 26 May 08:53:41 08:57:36 48° 341° (NNW) 09:01:33 437.485
AO-85 26 May 08:56:21 09:00:04 38° 352° (N) 09:03:49 145.980
XW-2A 26 May 08:56:45 09:00:12 70° 289° (WNW) 09:03:38 145.665 - 145.685
CUBEBUG 2 26 May 08:59:29 09:04:00 71° 103° (ESE) 09:08:37 437.445
AO-7 26 May 09:04:58 09:11:08 24° 345° (NNW) 09:17:19 .
PRISM 26 May 09:05:21 09:09:28 66° 68° (ENE) 09:13:34 437.425
UWE-3 26 May 09:11:31 09:16:01 62° 102° (ESE) 09:20:37 435.000/436.395/437.385
DELFI C3 26 May 09:15:25 09:17:17 13° 84° (E) 09:19:07 145.870
M-CUBED/EXP-1 PRIME 26 May 09:16:32 09:18:46 14° 264° (W) 09:20:58 437.505
SEEDS 26 May 09:21:19 09:25:33 65° 291° (WNW) 09:29:44 437.485
EO-79 26 May 09:23:39 09:25:55 14° 46° (NE) 09:28:11 145.935-145.965
AIST 2D 26 May 09:26:11 09:28:25 16° 53° (NE) 09:30:39 435.315
XW-2D 26 May 09:26:20 09:28:04 13° 313° (NW) 09:29:49 145.860 - 145.880
DOVE 4 26 May 09:30:16 09:31:27 11° 318° (NW) 09:32:37 437.250
EO-88 26 May 09:30:37 09:32:15 12° 85° (E) 09:33:52 145.990 - 145.960
XW-2B 26 May 09:34:32 09:35:55 12° 314° (NW) 09:37:19 145.730 - 145.750
HO-68 26 May 09:38:27 09:45:37 69° 299° (WNW) 09:52:45 435.675
O/OREOS (USA 219) 26 May 09:44:20 09:47:25 17° 6° (N) 09:50:29 437.305
Oscar 11 26 May 09:47:33 09:51:54 60° 102° (ESE) 09:56:13 .
TIGRISAT 26 May 09:47:45 09:52:04 79° 254° (WSW) 09:56:31 435.000
NUDT-PHONESAT 26 May 09:49:52 09:50:26 10° 315° (NW) 09:51:01 437.300
